Location: Unspecified
(0.0000°N, 0.0000°E)
Time: 19:01:27
(UTC+00:00)

Explorer 7 - Pass Details

Date: 23 November 2019
Orbit: 485 x 680 km, 50.3° (Epoch: 08 December)

Event Time Altitude Azimuth Distance (km) Brightness Sun altitude
Rises 18:16:05 0° 194° (SSW) 2,971 11.1 -7.0°
Reaches altitude 10° 18:18:48 10° 180° (S) 2,081 10.0 -7.6°
Maximum altitude 18:22:39 24° 127° (SE) 1,400 8.6 -8.5°
Enters shadow 18:26:12 11° 77° (ENE) 2,007 9.0 -9.3°
Drops below altitude 10° 18:26:33 10° 74° (ENE) 2,107 - -9.4°
Sets 18:29:18 0° 60° (ENE) 3,018 - -10.0°
